contact:dominique.lefevre@mio.osupytheas.fr, maurice.libes@osupytheas.fr, didier.mallarino@osupytheas.fr
Project:EMSO http://www.emso-fr.org/EMSO-France
Depth: 2436.0 m
Title:EMSO Ligure Ouest : Data MII capteur MICROCAT
DateTime_Computer,Latitude,Longitude,Temperature,Conductivity,Pressure,DateTime_Instrument
DateTime_Computer,Latitude,Longitude,degC,S m-1,dbar,DateTime_Instrument
2021-01-24T00:01:09Z,42.805,6.029,13.3002,4.60013,2470.077,2021-1-24T02:02:11Z
2021-01-24T00:04:12Z,42.805,6.029,13.3005,4.60015,2470.017,2021-1-24T02:05:14Z
2021-01-24T00:07:15Z,42.805,6.029,13.3003,4.60015,2470.077,2021-1-24T02:08:17Z
2021-01-24T00:10:18Z,42.805,6.029,13.3005,4.60020,2470.077,2021-1-24T02:11:21Z
2021-01-24T00:13:22Z,42.805,6.029,13.3005,4.60020,2470.077,2021-1-24T02:14:24Z
2021-01-24T00:16:25Z,42.805,6.029,13.3000,4.60019,2470.077,2021-1-24T02:17:27Z
2021-01-24T00:19:28Z,42.805,6.029,13.3000,4.60033,2470.077,2021-1-24T02:20:30Z
2021-01-24T00:22:31Z,42.805,6.029,13.2993,4.60033,2470.124,2021-1-24T02:23:33Z
2021-01-24T00:25:34Z,42.805,6.029,13.2998,4.60006,2470.04,2021-1-24T02:26:36Z
2021-01-24T00:28:37Z,42.805,6.029,13.3010,4.60019,2470.087,2021-1-24T02:29:39Z
2021-01-24T00:31:40Z,42.805,6.029,13.3016,4.60035,2470.077,2021-1-24T02:32:42Z
2021-01-24T00:34:43Z,42.805,6.029,13.3006,4.60045,2470.1,2021-1-24T02:35:46Z
2021-01-24T00:37:47Z,42.805,6.029,13.3007,4.60031,2470.063,2021-1-24T02:38:49Z
2021-01-24T00:40:50Z,42.805,6.029,13.3008,4.60022,2470.063,2021-1-24T02:41:52Z
2021-01-24T00:43:53Z,42.805,6.029,13.3006,4.60026,2470.1,2021-1-24T02:44:55Z
2021-01-24T00:46:56Z,42.805,6.029,13.3004,4.60014,2470.087,2021-1-24T02:47:58Z
2021-01-24T00:49:59Z,42.805,6.029,13.3004,4.60026,2470.077,2021-1-24T02:51:01Z
2021-01-24T00:53:02Z,42.805,6.029,13.2998,4.60023,2470.11,2021-1-24T02:54:04Z
2021-01-24T00:56:05Z,42.805,6.029,13.2999,4.60027,2470.063,2021-1-24T02:57:07Z
2021-01-24T00:59:08Z,42.805,6.029,13.3003,4.60021,2470.11,2021-1-24T03:00:11Z
2021-01-24T01:02:12Z,42.805,6.029,13.3011,4.60041,2470.124,2021-1-24T03:03:14Z
2021-01-24T01:05:15Z,42.805,6.029,13.3011,4.60007,2470.087,2021-1-24T03:06:17Z
2021-01-24T01:08:18Z,42.805,6.029,13.3006,4.60017,2470.1,2021-1-24T03:09:20Z
2021-01-24T01:11:21Z,42.805,6.029,13.3003,4.60031,2470.124,2021-1-24T03:12:23Z
2021-01-24T01:14:24Z,42.805,6.029,13.3003,4.60006,2470.11,2021-1-24T03:15:26Z
2021-01-24T01:17:27Z,42.805,6.029,13.3004,4.60019,2470.1,2021-1-24T03:18:29Z
2021-01-24T01:20:30Z,42.805,6.029,13.2997,4.60034,2470.087,2021-1-24T03:21:32Z
2021-01-24T01:23:33Z,42.805,6.029,13.3004,4.60017,2470.11,2021-1-24T03:24:35Z
2021-01-24T01:26:36Z,42.805,6.029,13.3015,4.60025,2470.124,2021-1-24T03:27:39Z
2021-01-24T01:29:40Z,42.805,6.029,13.3004,4.60025,2470.11,2021-1-24T03:30:42Z
2021-01-24T01:32:43Z,42.805,6.029,13.3000,4.60026,2470.124,2021-1-24T03:33:45Z
2021-01-24T01:35:46Z,42.805,6.029,13.3003,4.60037,2470.11,2021-1-24T03:36:48Z
2021-01-24T01:38:49Z,42.805,6.029,13.3001,4.60026,2470.133,2021-1-24T03:39:51Z
2021-01-24T01:41:52Z,42.805,6.029,13.2994,4.60026,2470.133,2021-1-24T03:42:54Z
2021-01-24T01:44:55Z,42.805,6.029,13.2994,4.60009,2470.11,2021-1-24T03:45:57Z
2021-01-24T01:47:58Z,42.805,6.029,13.2994,4.60025,2470.087,2021-1-24T03:49:00Z
2021-01-24T01:51:02Z,42.805,6.029,13.2998,4.60036,2470.156,2021-1-24T03:52:04Z
2021-01-24T01:54:05Z,42.805,6.029,13.2996,4.60040,2470.124,2021-1-24T03:55:07Z
2021-01-24T01:57:08Z,42.805,6.029,13.2999,4.60031,2470.124,2021-1-24T03:58:10Z
2021-01-24T02:00:11Z,42.805,6.029,13.3004,4.60028,2470.1,2021-1-24T04:01:13Z
2021-01-24T02:03:14Z,42.805,6.029,13.3004,4.60058,2470.11,2021-1-24T04:04:16Z
2021-01-24T02:06:17Z,42.805,6.029,13.3003,4.60050,2470.171,2021-1-24T04:07:19Z
2021-01-24T02:09:20Z,42.805,6.029,13.3006,4.60019,2470.11,2021-1-24T04:10:22Z
2021-01-24T02:12:23Z,42.805,6.029,13.3008,4.60017,2470.147,2021-1-24T04:13:25Z
2021-01-24T02:15:26Z,42.805,6.029,13.3014,4.60039,2470.147,2021-1-24T04:16:29Z
2021-01-24T02:18:30Z,42.805,6.029,13.3009,4.60027,2470.11,2021-1-24T04:19:32Z
2021-01-24T02:21:33Z,42.805,6.029,13.3010,4.60014,2470.147,2021-1-24T04:22:35Z
2021-01-24T02:24:36Z,42.805,6.029,13.3011,4.60029,2470.124,2021-1-24T04:25:38Z
2021-01-24T02:27:39Z,42.805,6.029,13.3013,4.60009,2470.133,2021-1-24T04:28:41Z
2021-01-24T02:30:42Z,42.805,6.029,13.3005,4.60022,2470.11,2021-1-24T04:31:44Z
2021-01-24T02:33:45Z,42.805,6.029,13.2999,4.60041,2470.133,2021-1-24T04:34:47Z
2021-01-24T02:36:48Z,42.805,6.029,13.3011,4.60039,2470.124,2021-1-24T04:37:50Z
2021-01-24T02:39:51Z,42.805,6.029,13.3015,4.60044,2470.147,2021-1-24T04:40:54Z
2021-01-24T02:42:55Z,42.805,6.029,13.3005,4.60016,2470.147,2021-1-24T04:43:57Z
2021-01-24T02:45:58Z,42.805,6.029,13.3009,4.60029,2470.18,2021-1-24T04:47:00Z
2021-01-24T02:49:01Z,42.805,6.029,13.3014,4.60052,2470.133,2021-1-24T04:50:03Z
2021-01-24T02:52:04Z,42.805,6.029,13.3009,4.60034,2470.133,2021-1-24T04:53:06Z
2021-01-24T02:55:07Z,42.805,6.029,13.3006,4.60033,2470.171,2021-1-24T04:56:09Z
2021-01-24T02:58:10Z,42.805,6.029,13.3006,4.60019,2470.171,2021-1-24T04:59:12Z
2021-01-24T03:01:13Z,42.805,6.029,13.3020,4.60014,2470.194,2021-1-24T05:02:15Z
2021-01-24T03:04:16Z,42.805,6.029,13.3003,4.60012,2470.124,2021-1-24T05:05:19Z
2021-01-24T03:07:20Z,42.805,6.029,13.2997,4.59997,2470.133,2021-1-24T05:08:22Z
2021-01-24T03:10:23Z,42.805,6.029,13.3009,4.60011,2470.133,2021-1-24T05:11:25Z
2021-01-24T03:13:26Z,42.805,6.029,13.3014,4.60014,2470.156,2021-1-24T05:14:28Z
2021-01-24T03:16:29Z,42.805,6.029,13.3011,4.60034,2470.156,2021-1-24T05:17:31Z
2021-01-24T03:19:32Z,42.805,6.029,13.3010,4.60016,2470.18,2021-1-24T05:20:34Z
2021-01-24T03:22:35Z,42.805,6.029,13.3004,4.59999,2470.171,2021-1-24T05:23:37Z
2021-01-24T03:25:38Z,42.805,6.029,13.3004,4.60010,2470.156,2021-1-24T05:26:40Z
2021-01-24T03:28:41Z,42.805,6.029,13.3002,4.60003,2470.147,2021-1-24T05:29:44Z
2021-01-24T03:31:45Z,42.805,6.029,13.2986,4.60007,2470.171,2021-1-24T05:32:47Z
2021-01-24T03:34:48Z,42.805,6.029,13.3015,4.60014,2470.171,2021-1-24T05:35:50Z
2021-01-24T03:37:51Z,42.805,6.029,13.3005,4.59999,2470.133,2021-1-24T05:38:53Z
2021-01-24T03:40:54Z,42.805,6.029,13.3003,4.60016,2470.156,2021-1-24T05:41:56Z
2021-01-24T03:43:57Z,42.805,6.029,13.2996,4.60002,2470.194,2021-1-24T05:44:59Z
2021-01-24T03:47:00Z,42.805,6.029,13.2998,4.60008,2470.133,2021-1-24T05:48:02Z
2021-01-24T03:50:03Z,42.805,6.029,13.3014,4.59996,2470.119,2021-1-24T05:51:05Z
2021-01-24T03:53:06Z,42.805,6.029,13.2987,4.59999,2470.171,2021-1-24T05:54:09Z
2021-01-24T03:56:10Z,42.805,6.029,13.2987,4.59993,2470.156,2021-1-24T05:57:12Z
2021-01-24T03:59:13Z,42.805,6.029,13.2986,4.59994,2470.18,2021-1-24T06:00:15Z
2021-01-24T04:02:16Z,42.805,6.029,13.2986,4.59995,2470.156,2021-1-24T06:03:18Z
2021-01-24T04:05:19Z,42.805,6.029,13.2986,4.59995,2470.194,2021-1-24T06:06:21Z
2021-01-24T04:08:22Z,42.805,6.029,13.2990,4.59996,2470.171,2021-1-24T06:09:24Z
2021-01-24T04:11:25Z,42.805,6.029,13.2986,4.59992,2470.194,2021-1-24T06:12:27Z
2021-01-24T04:14:28Z,42.805,6.029,13.2989,4.59993,2470.133,2021-1-24T06:15:30Z
2021-01-24T04:17:31Z,42.805,6.029,13.2990,4.59992,2470.18,2021-1-24T06:18:33Z
2021-01-24T04:20:35Z,42.805,6.029,13.2987,4.59994,2470.171,2021-1-24T06:21:37Z
2021-01-24T04:23:38Z,42.805,6.029,13.2991,4.59995,2470.156,2021-1-24T06:24:40Z
2021-01-24T04:26:41Z,42.805,6.029,13.2989,4.59993,2470.203,2021-1-24T06:27:43Z
2021-01-24T04:29:44Z,42.805,6.029,13.2987,4.59992,2470.171,2021-1-24T06:30:46Z
2021-01-24T04:32:47Z,42.805,6.029,13.2993,4.60002,2470.133,2021-1-24T06:33:49Z
2021-01-24T04:35:50Z,42.805,6.029,13.3019,4.60015,2470.133,2021-1-24T06:36:52Z
2021-01-24T04:38:53Z,42.805,6.029,13.2991,4.59995,2470.18,2021-1-24T06:39:55Z
2021-01-24T04:41:56Z,42.805,6.029,13.3004,4.60004,2470.18,2021-1-24T06:42:58Z
2021-01-24T04:44:59Z,42.805,6.029,13.2999,4.60014,2470.156,2021-1-24T06:46:02Z
2021-01-24T04:48:03Z,42.805,6.029,13.3011,4.60012,2470.156,2021-1-24T06:49:05Z
2021-01-24T04:51:06Z,42.805,6.029,13.2998,4.59999,2470.18,2021-1-24T06:52:08Z
2021-01-24T04:54:09Z,42.805,6.029,13.3024,4.60024,2470.171,2021-1-24T06:55:11Z
2021-01-24T04:57:12Z,42.805,6.029,13.3018,4.60003,2470.194,2021-1-24T06:58:14Z
2021-01-24T05:00:15Z,42.805,6.029,13.3006,4.60017,2470.156,2021-1-24T07:01:17Z
2021-01-24T05:03:18Z,42.805,6.029,13.3013,4.60016,2470.171,2021-1-24T07:04:20Z
2021-01-24T05:06:21Z,42.805,6.029,13.2993,4.59995,2470.156,2021-1-24T07:07:23Z
2021-01-24T05:09:24Z,42.805,6.029,13.2988,4.60003,2470.171,2021-1-24T07:10:27Z
2021-01-24T05:12:28Z,42.805,6.029,13.3007,4.60009,2470.194,2021-1-24T07:13:30Z
2021-01-24T05:15:31Z,42.805,6.029,13.3011,4.60013,2470.194,2021-1-24T07:16:33Z
2021-01-24T05:18:34Z,42.805,6.029,13.3007,4.60010,2470.156,2021-1-24T07:19:36Z
2021-01-24T05:21:37Z,42.805,6.029,13.3010,4.60013,2470.18,2021-1-24T07:22:39Z
2021-01-24T05:24:40Z,42.805,6.029,13.3011,4.60031,2470.171,2021-1-24T07:25:42Z
2021-01-24T05:27:43Z,42.805,6.029,13.3014,4.60033,2470.156,2021-1-24T07:28:45Z
2021-01-24T05:30:46Z,42.805,6.029,13.3024,4.60040,2470.194,2021-1-24T07:31:48Z
2021-01-24T05:33:49Z,42.805,6.029,13.2997,4.60029,2470.171,2021-1-24T07:34:52Z
2021-01-24T05:36:53Z,42.805,6.029,13.3011,4.60013,2470.194,2021-1-24T07:37:55Z
2021-01-24T05:39:56Z,42.805,6.029,13.3011,4.60031,2470.18,2021-1-24T07:40:58Z
2021-01-24T05:42:59Z,42.805,6.029,13.2998,4.60044,2470.203,2021-1-24T07:44:01Z
2021-01-24T05:46:02Z,42.805,6.029,13.3011,4.60057,2470.194,2021-1-24T07:47:04Z
2021-01-24T05:49:05Z,42.805,6.029,13.3020,4.60037,2470.18,2021-1-24T07:50:07Z
2021-01-24T05:52:08Z,42.805,6.029,13.3011,4.60072,2470.171,2021-1-24T07:53:10Z
2021-01-24T05:55:11Z,42.805,6.029,13.3016,4.60039,2470.18,2021-1-24T07:56:13Z
2021-01-24T05:58:14Z,42.805,6.029,13.3011,4.60034,2470.156,2021-1-24T07:59:17Z
2021-01-24T06:01:18Z,42.805,6.029,13.3008,4.60057,2470.203,2021-1-24T08:02:20Z
2021-01-24T06:04:21Z,42.805,6.029,13.3014,4.60055,2470.171,2021-1-24T08:05:23Z
2021-01-24T06:07:24Z,42.805,6.029,13.3012,4.60073,2470.194,2021-1-24T08:08:26Z
2021-01-24T06:10:27Z,42.805,6.029,13.3005,4.60069,2470.18,2021-1-24T08:11:29Z
2021-01-24T06:13:30Z,42.805,6.029,13.3007,4.60037,2470.171,2021-1-24T08:14:32Z
2021-01-24T06:16:33Z,42.805,6.029,13.3032,4.60074,2470.194,2021-1-24T08:17:35Z
2021-01-24T06:19:36Z,42.805,6.029,13.3014,4.60069,2470.171,2021-1-24T08:20:38Z
2021-01-24T06:22:39Z,42.805,6.029,13.3011,4.60073,2470.18,2021-1-24T08:23:41Z
2021-01-24T06:25:43Z,42.805,6.029,13.3006,4.60064,2470.156,2021-1-24T08:26:45Z
2021-01-24T06:28:46Z,42.805,6.029,13.3021,4.60029,2470.171,2021-1-24T08:29:48Z
2021-01-24T06:31:49Z,42.805,6.029,13.3002,4.60061,2470.171,2021-1-24T08:32:51Z
2021-01-24T06:34:52Z,42.805,6.029,13.3006,4.60063,2470.194,2021-1-24T08:35:54Z
2021-01-24T06:37:55Z,42.805,6.029,13.3009,4.60044,2470.203,2021-1-24T08:38:57Z
2021-01-24T06:40:58Z,42.805,6.029,13.3011,4.60047,2470.171,2021-1-24T08:42:00Z
2021-01-24T06:44:01Z,42.805,6.029,13.3001,4.60066,2470.18,2021-1-24T08:45:03Z
2021-01-24T06:47:04Z,42.805,6.029,13.3000,4.60053,2470.171,2021-1-24T08:48:07Z
2021-01-24T06:50:08Z,42.805,6.029,13.2999,4.60067,2470.194,2021-1-24T08:51:10Z
2021-01-24T06:53:11Z,42.805,6.029,13.2999,4.60053,2470.18,2021-1-24T08:54:13Z
2021-01-24T06:56:14Z,42.805,6.029,13.3005,4.60049,2470.194,2021-1-24T08:57:16Z
2021-01-24T06:59:17Z,42.805,6.029,13.3011,4.60085,2470.171,2021-1-24T09:00:19Z
2021-01-24T07:02:20Z,42.805,6.029,13.3006,4.60042,2470.124,2021-1-24T09:03:22Z
2021-01-24T07:05:23Z,42.805,6.029,13.2998,4.60055,2470.156,2021-1-24T09:06:25Z
2021-01-24T07:08:26Z,42.805,6.029,13.3000,4.60029,2470.171,2021-1-24T09:09:28Z
2021-01-24T07:11:29Z,42.805,6.029,13.3005,4.60062,2470.156,2021-1-24T09:12:31Z
2021-01-24T07:14:32Z,42.805,6.029,13.3012,4.60072,2470.194,2021-1-24T09:15:35Z
2021-01-24T07:17:36Z,42.805,6.029,13.3015,4.60052,2470.18,2021-1-24T09:18:38Z
2021-01-24T07:20:39Z,42.805,6.029,13.3001,4.60048,2470.156,2021-1-24T09:21:41Z
2021-01-24T07:23:42Z,42.805,6.029,13.3009,4.60059,2470.194,2021-1-24T09:24:44Z
2021-01-24T07:26:45Z,42.805,6.029,13.3011,4.60057,2470.194,2021-1-24T09:27:47Z
2021-01-24T07:29:48Z,42.805,6.029,13.3014,4.60062,2470.18,2021-1-24T09:30:50Z
2021-01-24T07:32:51Z,42.805,6.029,13.2998,4.60055,2470.156,2021-1-24T09:33:53Z
2021-01-24T07:35:54Z,42.805,6.029,13.3006,4.60069,2470.194,2021-1-24T09:36:56Z
2021-01-24T07:38:57Z,42.805,6.029,13.3009,4.60043,2470.18,2021-1-24T09:40:00Z
2021-01-24T07:42:01Z,42.805,6.029,13.3002,4.60051,2470.133,2021-1-24T09:43:03Z
2021-01-24T07:45:04Z,42.805,6.029,13.3006,4.60048,2470.217,2021-1-24T09:46:06Z
2021-01-24T07:48:07Z,42.805,6.029,13.3008,4.60061,2470.147,2021-1-24T09:49:09Z
2021-01-24T07:51:10Z,42.805,6.029,13.3006,4.60062,2470.18,2021-1-24T09:52:12Z
2021-01-24T07:54:13Z,42.805,6.029,13.3009,4.60062,2470.171,2021-1-24T09:55:15Z
2021-01-24T07:57:16Z,42.805,6.029,13.3002,4.60039,2470.156,2021-1-24T09:58:18Z
2021-01-24T08:00:19Z,42.805,6.029,13.3009,4.60039,2470.156,2021-1-24T10:01:21Z
2021-01-24T08:03:22Z,42.805,6.029,13.3014,4.60079,2470.171,2021-1-24T10:04:25Z
2021-01-24T08:06:26Z,42.805,6.029,13.3003,4.60071,2470.194,2021-1-24T10:07:28Z
2021-01-24T08:09:29Z,42.805,6.029,13.3009,4.60034,2470.18,2021-1-24T10:10:31Z
2021-01-24T08:12:32Z,42.805,6.029,13.3000,4.60046,2470.133,2021-1-24T10:13:34Z
2021-01-24T08:15:35Z,42.805,6.029,13.3001,4.60031,2470.171,2021-1-24T10:16:37Z
2021-01-24T08:18:38Z,42.805,6.029,13.3004,4.60064,2470.194,2021-1-24T10:19:40Z
2021-01-24T08:21:41Z,42.805,6.029,13.3004,4.60046,2470.194,2021-1-24T10:22:43Z
2021-01-24T08:24:44Z,42.805,6.029,13.3002,4.60031,2470.171,2021-1-24T10:25:46Z
2021-01-24T08:27:47Z,42.805,6.029,13.3000,4.60087,2470.18,2021-1-24T10:28:50Z
2021-01-24T08:30:51Z,42.805,6.029,13.3009,4.60052,2470.156,2021-1-24T10:31:53Z
2021-01-24T08:33:54Z,42.805,6.029,13.3021,4.60046,2470.171,2021-1-24T10:34:56Z
2021-01-24T08:36:57Z,42.805,6.029,13.3007,4.60035,2470.171,2021-1-24T10:37:59Z
2021-01-24T08:40:00Z,42.805,6.029,13.3018,4.60038,2470.133,2021-1-24T10:41:02Z
2021-01-24T08:43:03Z,42.805,6.029,13.3014,4.60069,2470.156,2021-1-24T10:44:05Z
2021-01-24T08:46:06Z,42.805,6.029,13.3011,4.60067,2470.18,2021-1-24T10:47:08Z
2021-01-24T08:49:09Z,42.805,6.029,13.3010,4.60033,2470.147,2021-1-24T10:50:11Z
2021-01-24T08:52:12Z,42.805,6.029,13.3027,4.60049,2470.156,2021-1-24T10:53:15Z
2021-01-24T08:55:16Z,42.805,6.029,13.3014,4.60082,2470.156,2021-1-24T10:56:18Z
2021-01-24T08:58:19Z,42.805,6.029,13.3022,4.60075,2470.156,2021-1-24T10:59:21Z
2021-01-24T09:01:22Z,42.805,6.029,13.3013,4.60077,2470.18,2021-1-24T11:02:24Z
2021-01-24T09:04:25Z,42.805,6.029,13.3047,4.60067,2470.156,2021-1-24T11:05:27Z
2021-01-24T09:07:28Z,42.805,6.029,13.3049,4.60071,2470.18,2021-1-24T11:08:30Z
2021-01-24T09:10:31Z,42.805,6.029,13.3033,4.60040,2470.156,2021-1-24T11:11:33Z
2021-01-24T09:13:34Z,42.805,6.029,13.3018,4.60048,2470.203,2021-1-24T11:14:36Z
2021-01-24T09:16:38Z,42.805,6.029,13.3012,4.60093,2470.171,2021-1-24T11:17:40Z
2021-01-24T09:19:41Z,42.805,6.029,13.3042,4.60060,2470.171,2021-1-24T11:20:43Z
2021-01-24T09:22:44Z,42.805,6.029,13.3057,4.60044,2470.171,2021-1-24T11:23:46Z
2021-01-24T09:25:47Z,42.805,6.029,13.3032,4.60080,2470.171,2021-1-24T11:26:49Z
2021-01-24T09:28:50Z,42.805,6.029,13.3031,4.60070,2470.11,2021-1-24T11:29:52Z
2021-01-24T09:31:53Z,42.805,6.029,13.3048,4.60070,2470.147,2021-1-24T11:32:55Z
2021-01-24T09:34:56Z,42.805,6.029,13.3034,4.60069,2470.156,2021-1-24T11:35:58Z
2021-01-24T09:37:59Z,42.805,6.029,13.3067,4.60069,2470.156,2021-1-24T11:39:02Z
2021-01-24T09:41:03Z,42.805,6.029,13.3058,4.60085,2470.133,2021-1-24T11:42:05Z
2021-01-24T09:44:06Z,42.805,6.029,13.3047,4.60055,2470.133,2021-1-24T11:45:08Z
2021-01-24T09:47:09Z,42.805,6.029,13.3031,4.60076,2470.171,2021-1-24T11:48:11Z
2021-01-24T09:50:12Z,42.805,6.029,13.3059,4.60064,2470.171,2021-1-24T11:51:14Z
2021-01-24T09:53:15Z,42.805,6.029,13.3021,4.60085,2470.171,2021-1-24T11:54:17Z
2021-01-24T09:56:18Z,42.805,6.029,13.3056,4.60082,2470.171,2021-1-24T11:57:20Z
2021-01-24T09:59:21Z,42.805,6.029,13.3054,4.60098,2470.147,2021-1-24T12:00:23Z
2021-01-24T10:02:24Z,42.805,6.029,13.3049,4.60070,2470.133,2021-1-24T12:03:27Z
2021-01-24T10:05:28Z,42.805,6.029,13.3070,4.60054,2470.133,2021-1-24T12:06:30Z
2021-01-24T10:08:31Z,42.805,6.029,13.3054,4.60064,2470.156,2021-1-24T12:09:33Z
2021-01-24T10:11:34Z,42.805,6.029,13.3025,4.60062,2470.124,2021-1-24T12:12:36Z
2021-01-24T10:14:37Z,42.805,6.029,13.3043,4.60091,2470.147,2021-1-24T12:15:39Z
2021-01-24T10:17:40Z,42.805,6.029,13.3055,4.60056,2470.11,2021-1-24T12:18:42Z
2021-01-24T10:20:43Z,42.805,6.029,13.3059,4.60039,2470.171,2021-1-24T12:21:45Z
2021-01-24T10:23:46Z,42.805,6.029,13.3048,4.60060,2470.147,2021-1-24T12:24:48Z
2021-01-24T10:26:49Z,42.805,6.029,13.3031,4.60009,2470.171,2021-1-24T12:27:52Z
2021-01-24T10:29:53Z,42.805,6.029,13.3024,4.60022,2470.124,2021-1-24T12:30:55Z
2021-01-24T10:32:56Z,42.805,6.029,13.3021,4.60009,2470.11,2021-1-24T12:33:58Z
2021-01-24T10:35:59Z,42.805,6.029,13.3009,4.60039,2470.147,2021-1-24T12:37:01Z
2021-01-24T10:39:02Z,42.805,6.029,13.3019,4.60036,2470.133,2021-1-24T12:40:04Z
2021-01-24T10:42:05Z,42.805,6.029,13.3039,4.60058,2470.133,2021-1-24T12:43:07Z
2021-01-24T10:45:08Z,42.805,6.029,13.3052,4.60049,2470.147,2021-1-24T12:46:10Z
2021-01-24T10:48:11Z,42.805,6.029,13.3034,4.60067,2470.147,2021-1-24T12:49:13Z
2021-01-24T10:51:14Z,42.805,6.029,13.3021,4.60057,2470.156,2021-1-24T12:52:17Z
2021-01-24T10:54:18Z,42.805,6.029,13.3042,4.60033,2470.147,2021-1-24T12:55:20Z
2021-01-24T10:57:21Z,42.805,6.029,13.3011,4.60057,2470.087,2021-1-24T12:58:23Z
2021-01-24T11:00:24Z,42.805,6.029,13.3028,4.60031,2470.156,2021-1-24T13:01:26Z
2021-01-24T11:03:27Z,42.805,6.029,13.3006,4.60027,2470.11,2021-1-24T13:04:29Z
2021-01-24T11:06:30Z,42.805,6.029,13.3007,4.60057,2470.133,2021-1-24T13:07:32Z
2021-01-24T11:09:33Z,42.805,6.029,13.3004,4.60038,2470.147,2021-1-24T13:10:35Z
2021-01-24T11:12:36Z,42.805,6.029,13.3026,4.60033,2470.156,2021-1-24T13:13:38Z
2021-01-24T11:15:39Z,42.805,6.029,13.3043,4.60045,2470.11,2021-1-24T13:16:42Z
2021-01-24T11:18:43Z,42.805,6.029,13.3050,4.60033,2470.18,2021-1-24T13:19:45Z
2021-01-24T11:21:46Z,42.805,6.029,13.3036,4.60039,2470.156,2021-1-24T13:22:48Z
2021-01-24T11:24:49Z,42.805,6.029,13.3009,4.60077,2470.147,2021-1-24T13:25:51Z
2021-01-24T11:27:52Z,42.805,6.029,13.3039,4.60057,2470.147,2021-1-24T13:28:54Z
2021-01-24T11:30:55Z,42.805,6.029,13.3041,4.60031,2470.147,2021-1-24T13:31:57Z
2021-01-24T11:33:58Z,42.805,6.029,13.3047,4.60088,2470.11,2021-1-24T13:35:00Z
2021-01-24T11:37:01Z,42.805,6.029,13.3019,4.60049,2470.147,2021-1-24T13:38:03Z
2021-01-24T11:40:04Z,42.805,6.029,13.3013,4.60068,2470.133,2021-1-24T13:41:07Z
2021-01-24T11:43:08Z,42.805,6.029,13.3060,4.60044,2470.171,2021-1-24T13:44:10Z
2021-01-24T11:46:11Z,42.805,6.029,13.3046,4.60025,2470.11,2021-1-24T13:47:13Z
2021-01-24T11:49:14Z,42.805,6.029,13.3038,4.60049,2470.133,2021-1-24T13:50:16Z
2021-01-24T11:52:17Z,42.805,6.029,13.3024,4.60055,2470.156,2021-1-24T13:53:19Z
2021-01-24T11:55:20Z,42.805,6.029,13.3042,4.60058,2470.133,2021-1-24T13:56:22Z
2021-01-24T11:58:23Z,42.805,6.029,13.3034,4.60061,2470.171,2021-1-24T13:59:25Z
2021-01-24T12:01:26Z,42.805,6.029,13.3039,4.60032,2470.1,2021-1-24T14:02:28Z
2021-01-24T12:04:29Z,42.805,6.029,13.3052,4.60053,2470.147,2021-1-24T14:05:32Z
2021-01-24T12:07:33Z,42.805,6.029,13.3020,4.60051,2470.11,2021-1-24T14:08:35Z
2021-01-24T12:10:36Z,42.805,6.029,13.3020,4.60042,2470.133,2021-1-24T14:11:38Z
2021-01-24T12:13:39Z,42.805,6.029,13.3031,4.60052,2470.156,2021-1-24T14:14:41Z
2021-01-24T12:16:42Z,42.805,6.029,13.3015,4.60044,2470.147,2021-1-24T14:17:44Z
2021-01-24T12:19:45Z,42.805,6.029,13.3000,4.60068,2470.171,2021-1-24T14:20:47Z
2021-01-24T12:22:48Z,42.805,6.029,13.3024,4.60096,2470.133,2021-1-24T14:23:50Z
2021-01-24T12:25:51Z,42.805,6.029,13.3021,4.60084,2470.18,2021-1-24T14:26:54Z
2021-01-24T12:28:55Z,42.805,6.029,13.3040,4.60078,2470.171,2021-1-24T14:29:57Z
2021-01-24T12:31:58Z,42.805,6.029,13.3034,4.60067,2470.147,2021-1-24T14:33:00Z
2021-01-24T12:35:01Z,42.805,6.029,13.3039,4.60058,2470.18,2021-1-24T14:36:03Z
2021-01-24T12:38:04Z,42.805,6.029,13.3040,4.60063,2470.156,2021-1-24T14:39:06Z
2021-01-24T12:41:07Z,42.805,6.029,13.3019,4.60064,2470.156,2021-1-24T14:42:09Z
2021-01-24T12:44:10Z,42.805,6.029,13.3034,4.60069,2470.147,2021-1-24T14:45:12Z
2021-01-24T12:47:13Z,42.805,6.029,13.3030,4.60062,2470.171,2021-1-24T14:48:15Z
2021-01-24T12:50:16Z,42.805,6.029,13.3039,4.60067,2470.133,2021-1-24T14:51:19Z
2021-01-24T12:53:20Z,42.805,6.029,13.3040,4.60072,2470.194,2021-1-24T14:54:22Z
2021-01-24T12:56:23Z,42.805,6.029,13.3033,4.60073,2470.124,2021-1-24T14:57:25Z
2021-01-24T12:59:26Z,42.805,6.029,13.3043,4.60069,2470.171,2021-1-24T15:00:28Z
2021-01-24T13:02:29Z,42.805,6.029,13.3055,4.60089,2470.171,2021-1-24T15:03:31Z
2021-01-24T13:05:32Z,42.805,6.029,13.3029,4.60064,2470.147,2021-1-24T15:06:34Z
2021-01-24T13:08:35Z,42.805,6.029,13.3021,4.60073,2470.133,2021-1-24T15:09:37Z
2021-01-24T13:11:38Z,42.805,6.029,13.3026,4.60055,2470.171,2021-1-24T15:12:40Z
2021-01-24T13:14:41Z,42.805,6.029,13.3030,4.60078,2470.156,2021-1-24T15:15:44Z
2021-01-24T13:17:45Z,42.805,6.029,13.3041,4.60052,2470.156,2021-1-24T15:18:47Z
2021-01-24T13:20:48Z,42.805,6.029,13.3015,4.60080,2470.194,2021-1-24T15:21:50Z
2021-01-24T13:23:51Z,42.805,6.029,13.3041,4.60066,2470.156,2021-1-24T15:24:53Z
2021-01-24T13:26:54Z,42.805,6.029,13.3029,4.60074,2470.171,2021-1-24T15:27:56Z
2021-01-24T13:29:57Z,42.805,6.029,13.3022,4.60067,2470.156,2021-1-24T15:30:59Z
2021-01-24T13:33:00Z,42.805,6.029,13.3043,4.60070,2470.133,2021-1-24T15:34:02Z
2021-01-24T13:36:03Z,42.805,6.029,13.3016,4.60068,2470.203,2021-1-24T15:37:05Z
2021-01-24T13:39:06Z,42.805,6.029,13.3009,4.60052,2470.194,2021-1-24T15:40:09Z
2021-01-24T13:42:10Z,42.805,6.029,13.3027,4.60079,2470.147,2021-1-24T15:43:12Z
2021-01-24T13:45:13Z,42.805,6.029,13.3036,4.60048,2470.194,2021-1-24T15:46:15Z
2021-01-24T13:48:16Z,42.805,6.029,13.3026,4.60058,2470.194,2021-1-24T15:49:18Z
2021-01-24T13:51:19Z,42.805,6.029,13.3021,4.60069,2470.156,2021-1-24T15:52:21Z
2021-01-24T13:54:22Z,42.805,6.029,13.3014,4.60054,2470.156,2021-1-24T15:55:24Z
2021-01-24T13:57:25Z,42.805,6.029,13.3014,4.60072,2470.217,2021-1-24T15:58:27Z
2021-01-24T14:00:28Z,42.805,6.029,13.3034,4.60054,2470.194,2021-1-24T16:01:30Z
2021-01-24T14:03:31Z,42.805,6.029,13.3031,4.60057,2470.194,2021-1-24T16:04:34Z
2021-01-24T14:06:35Z,42.805,6.029,13.3010,4.60062,2470.217,2021-1-24T16:07:37Z
2021-01-24T14:09:38Z,42.805,6.029,13.3006,4.60051,2470.203,2021-1-24T16:10:40Z
2021-01-24T14:12:41Z,42.805,6.029,13.3003,4.60044,2470.18,2021-1-24T16:13:43Z
2021-01-24T14:15:44Z,42.805,6.029,13.3018,4.60055,2470.227,2021-1-24T16:16:46Z
2021-01-24T14:18:47Z,42.805,6.029,13.3006,4.60033,2470.18,2021-1-24T16:19:49Z
2021-01-24T14:21:50Z,42.805,6.029,13.3008,4.60033,2470.156,2021-1-24T16:22:52Z
2021-01-24T14:24:53Z,42.805,6.029,13.3012,4.60070,2470.217,2021-1-24T16:25:55Z
2021-01-24T14:27:56Z,42.805,6.029,13.3024,4.60033,2470.18,2021-1-24T16:28:59Z
2021-01-24T14:31:00Z,42.805,6.029,13.3015,4.60056,2470.194,2021-1-24T16:32:02Z
2021-01-24T14:34:03Z,42.805,6.029,13.3006,4.60062,2470.194,2021-1-24T16:35:05Z
2021-01-24T14:37:06Z,42.805,6.029,13.3013,4.60050,2470.194,2021-1-24T16:38:08Z
2021-01-24T14:40:09Z,42.805,6.029,13.3030,4.60053,2470.203,2021-1-24T16:41:11Z
2021-01-24T14:43:12Z,42.805,6.029,13.3009,4.60057,2470.156,2021-1-24T16:44:14Z
2021-01-24T14:46:15Z,42.805,6.029,13.3009,4.60042,2470.203,2021-1-24T16:47:17Z
2021-01-24T14:49:18Z,42.805,6.029,13.2998,4.60039,2470.203,2021-1-24T16:50:21Z
2021-01-24T14:52:22Z,42.805,6.029,13.3007,4.60025,2470.217,2021-1-24T16:53:24Z
2021-01-24T14:55:25Z,42.805,6.029,13.3006,4.60031,2470.24,2021-1-24T16:56:27Z
2021-01-24T14:58:28Z,42.805,6.029,13.3002,4.60046,2470.227,2021-1-24T16:59:30Z
2021-01-24T15:01:31Z,42.805,6.029,13.3014,4.60057,2470.203,2021-1-24T17:02:33Z
2021-01-24T15:04:34Z,42.805,6.029,13.3010,4.60052,2470.194,2021-1-24T17:05:36Z
2021-01-24T15:07:37Z,42.805,6.029,13.3021,4.60048,2470.156,2021-1-24T17:08:39Z
2021-01-24T15:10:40Z,42.805,6.029,13.2999,4.60041,2470.227,2021-1-24T17:11:42Z